TimeCDT,TemperatureF,Dew PointF,Humidity,Sea Level PressureIn,VisibilityMPH,Wind Direction,Wind SpeedMPH,Gust SpeedMPH,PrecipitationIn,Events,Conditions,WindDirDegrees,DateUTC
12:54 AM,75.0,69.1,82,30.07,10.0,East,13.8,-,N/A,,Partly Cloudy,100,2013-07-15 05:54:00
1:54 AM,74.8,70.2,85,30.06,10.0,East,13.8,-,N/A,,Mostly Cloudy,100,2013-07-15 06:54:00
2:54 AM,74.7,70.9,88,30.07,10.0,East,11.5,-,N/A,,Mostly Cloudy,90,2013-07-15 07:54:00
3:54 AM,74.5,71.2,90,30.07,10.0,East,12.7,-,N/A,,Scattered Clouds,100,2013-07-15 08:54:00
4:54 AM,74.1,71.8,92,30.09,10.0,ESE,11.5,-,N/A,,Scattered Clouds,110,2013-07-15 09:54:00
5:54 AM,74.3,71.6,91,30.11,10.0,ESE,13.8,-,N/A,,Mostly Cloudy,120,2013-07-15 10:54:00
6:54 AM,75.0,71.6,89,30.13,10.0,SE,13.8,-,N/A,,Mostly Cloudy,130,2013-07-15 11:54:00
7:54 AM,78.1,71.1,79,30.14,10.0,ESE,11.5,-,N/A,,Mostly Cloudy,120,2013-07-15 12:54:00
8:34 AM,80.6,71.6,74,30.17,10.0,ESE,12.7,-,N/A,,Mostly Cloudy,110,2013-07-15 13:34:00
8:47 AM,80.6,71.6,74,30.17,10.0,ESE,10.4,-,N/A,,Mostly Cloudy,120,2013-07-15 13:47:00
8:54 AM,80.1,72.0,76,30.17,10.0,SE,12.7,-,N/A,,Mostly Cloudy,140,2013-07-15 13:54:00
9:54 AM,82.9,71.1,67,30.17,10.0,SSE,9.2,-,N/A,,Mostly Cloudy,150,2013-07-15 14:54:00
10:01 AM,82.4,71.6,70,30.18,10.0,SE,9.2,-,N/A,,Scattered Clouds,140,2013-07-15 15:01:00
10:18 AM,82.4,69.8,66,30.18,10.0,ESE,15.0,18.4,N/A,,Mostly Cloudy,120,2013-07-15 15:18:00
10:35 AM,82.4,69.8,66,30.18,10.0,SE,10.4,-,0.00,,Mostly Cloudy,140,2013-07-15 15:35:00
10:51 AM,84.2,71.6,66,30.17,10.0,ESE,11.5,-,0.00,,Scattered Clouds,110,2013-07-15 15:51:00
10:54 AM,86.0,71.1,61,30.16,10.0,SE,9.2,-,0.00,,Mostly Cloudy,130,2013-07-15 15:54:00
11:54 AM,87.1,69.1,55,30.15,10.0,SE,15.0,20.7,N/A,,Mostly Cloudy,140,2013-07-15 16:54:00
12:36 PM,86.0,69.8,58,30.16,10.0,SSE,16.1,-,0.00,Rain,Light Rain,150,2013-07-15 17:36:00
12:54 PM,84.9,72.0,65,30.15,10.0,South,11.5,19.6,0.00,,Mostly Cloudy,180,2013-07-15 17:54:00
1:01 PM,86.0,73.4,66,30.16,10.0,South,11.5,-,N/A,,Mostly Cloudy,180,2013-07-15 18:01:00
1:22 PM,87.8,73.4,62,30.16,10.0,South,15.0,18.4,N/A,,Mostly Cloudy,180,2013-07-15 18:22:00
1:44 PM,80.6,75.2,84,30.16,10.0,South,11.5,-,0.01,Rain,Light Rain,170,2013-07-15 18:44:00
1:54 PM,82.0,73.9,76,30.15,10.0,SSE,12.7,-,0.01,,Scattered Clouds,160,2013-07-15 18:54:00
2:54 PM,88.0,72.0,59,30.12,10.0,SSE,12.7,-,N/A,,Scattered Clouds,150,2013-07-15 19:54:00
3:54 PM,90.0,71.1,54,30.11,10.0,South,10.4,-,N/A,,Scattered Clouds,180,2013-07-15 20:54:00
4:54 PM,90.0,71.1,54,30.10,10.0,South,11.5,-,N/A,,Mostly Cloudy,190,2013-07-15 21:54:00
5:54 PM,90.0,69.1,50,30.10,10.0,SSE,11.5,-,N/A,,Mostly Cloudy,150,2013-07-15 22:54:00
6:03 PM,89.6,69.8,52,30.12,10.0,ESE,16.1,21.9,N/A,,Mostly Cloudy,110,2013-07-15 23:03:00
6:15 PM,84.2,71.6,66,30.11,10.0,East,13.8,-,N/A,,Mostly Cloudy,90,2013-07-15 23:15:00
6:21 PM,86.0,73.4,66,30.12,10.0,East,11.5,-,N/A,Thunderstorm,Thunderstorm,90,2013-07-15 23:21:00
6:54 PM,80.1,73.9,81,30.13,6.0,East,11.5,23.0,0.02,Rain-Thunderstorm,Thunderstorms and Rain,90,2013-07-15 23:54:00
7:20 PM,80.6,73.4,79,30.15,9.0,East,10.4,-,0.03,Rain,Rain,100,2013-07-16 00:20:00
7:54 PM,81.0,75.0,82,30.15,10.0,SSE,6.9,-,0.08,,Mostly Cloudy,160,2013-07-16 00:54:00
8:54 PM,81.0,75.0,82,30.16,10.0,East,8.1,-,N/A,,Scattered Clouds,100,2013-07-16 01:54:00
9:54 PM,81.0,73.0,77,30.18,10.0,ESE,6.9,-,N/A,,Mostly Cloudy,120,2013-07-16 02:54:00
10:54 PM,81.0,72.0,74,30.17,10.0,ESE,6.9,-,N/A,,Partly Cloudy,110,2013-07-16 03:54:00
11:54 PM,80.1,72.0,76,30.17,10.0,SE,3.5,-,N/A,,Partly Cloudy,130,2013-07-16 04:54:00